Погода в Астраханке

Погода в Астраханке : погода сейчас, прогноз погоды и архив. Всё, что Вы хотите узнать о погоде в Астраханке!

Хотите узнать прогноз погоды в Астраханке? Тогда Вам сюда: Погода в Астраханке

Поиск расширенной информации на нашем сайте:

Другие новости

Новости СМИ2

Главная страница сайта

Новости сайта

02.10.2013

Напоминаем, что на нашем новом сайте вы можете получить высокодетализированные прогнозы погоды по пунктам России, СНГ и мира (включающие важные для авиации метеовеличины, такие как направление и скорость ветра, видимость, явления погоды, количество и форма облачности, нижняя и верхняя граница облачности), а также ознакомиться с разнообразными материалами по авиационной метеорологии и подборкой полезных ссылок на эту тему.

Сайт Метеоцентр.Азия посвящён разработке технологий оптимизации авиаметеорологического обслуживания, включая проектирование и перспективное создание нескольких автоматизированных авиаметеорологических систем:
- система выпуска высокодетальных прогностических карт явлений погоды для нижнего воздушного пространства по России и ближнему зарубежью;
- система верификации прогнозов TAF (выпускаемых синоптиками официальных АМСГ РФ и ближнего зарубежья) и AUTOTAF (выпускаемых сайтом Метеоцентр.Азия) - выявление ошибок, онлайн-сопоставление с фактической погодой METAR, автоматическое внесение коррективов в прогнозы при резком отклонении фактической погоды от прогноза, подсчёт оправдываемости прогнозов по элементам и в целом;
- система обработки, анализа и отображения авиаметеорологической информации для применения провайдерами метеорологической информации.


Погода в Астраханке - сегодня

Время (UTC), дата Ветер
(°,м/с) 
Видим.   Явления Облачность Т
(°С)
Тd
(°С)
f(%) Тe
(°С)
Pmin
(гПа)
dP
(гПа)
Po
(мм)
O2
(г/м3)
Тmin Tmax R s Состояние
почвы
15 24.06.17 340 (С) 9-12{12}  20000 м  зарница{ливн. осадки}  8/8 600 м кучево-дожд. 
[Cb cap]
+20.4 +16.1 76 +31  1003.6  0.7  746  276           
18 24.06.17 020 (С) 11-13{13}  20000 м  осадки на расстоянии{ливн. осадки}  8/8 600 м кучево-дожд. 
[Cb cap]
+19 +14 73 +26  1004.4  0.7  747  278           
21 24.06.17 010 (С) 10-12{15}  20000 м    10/3 600 м верхняя 
[Cu hum|Ci]
+16.7 +12.6 77 +21  1006.7  2.2  748  282  +16.7      влажная 
00 25.06.17 010 (С) 8{13}  20000 м    3/1 600 м верхняя 
[Cu hum|Ci sp]
+16.5 +10.1 66 +17  1007.6  0.8  749  283  +16.1         
03 25.06.17 030 (СВ) 8{11}  20000 м    1/1 600 м 
[Cu hum]
+17.3 +10.5 64 +19  1007.2  -0.3  749  282           
06 25.06.17 040 (СВ) 6{11}  20000 м    1/1 600 м 
[Cu hum]
+18.4 +12.4 68 +23  1006.7  -0.5  748  280           
09 25.06.17 040 (СВ) 20000 м    1/1 600 м 
[Cu hum]
+19.1 +12.6 66 +25  1006.7  748  279    +19.1       
12 25.06.17 240 (ЮЗ) 20000 м    ясно 
+15.8 +12 78 +21  1007.6  0.8  749  283           
15 25.06.17 250 (З) 20000 м    ясно 
+14.4 +11.6 83 +18  1008.2  0.5  749  285           
18 25.06.17 200 (Ю) 0500 м  туман  ?/?  
+11.1 +10.6 97 +12  1008.8  0.5  750  288           
21 25.06.17 200 (Ю) 0500 м  туман  ?/?  
+10.8 +10.4 97 +12  1009.5  0.6  750  289  +10.7        сухая 
00 26.06.17 210 (ЮЗ) 10 км  {туман}  10/10 300 м 
[St]
+14.1 +12.6 91 +19  1009.4  750  285           
03 26.06.17 200 (Ю) 20000 м    6/3 1000 м верхняя 
[Cu hum|Ci fib]
+21 +14.2 65 +28  1008.3  -0.8  749  278           
06 26.06.17 200 (Ю) 20000 м    6/0 верхняя 
[Cs]
+23.6 +14.2 56 +31  1006.7  -1.5  748  275           
09 26.06.17 200 (Ю) 20000 м    8/5 600 м средняя, верхняя 
[Sc|Ac As|Ci fib]
+21.5 +14.7 65 +30  1006  -0.8  748  276    +23.8       
12 26.06.17 210 (ЮЗ) 20000 м    8/0 средняя 
[Ac trans]
+16.2 +12.8 80 +21  1007.2  749  282           
15 26.06.17 210 (ЮЗ) 7-13{13}  20000 м    9/4 300 м средняя 
[St|Ac trans]
+13.6 +12 90 +16  1007.7  0.3  749  285           
18 26.06.17 200 (Ю) 6{13}  20000 м    10/4 300 м средняя 
[St|Ac und]
+14.1 +12.7 91 +18  1007.5  -0.1  749  284           
21 26.06.17 220 (ЮЗ) 5{10}  20000 м    10/10 300 м кучево-дожд. 
[Cb cap]
+13.9 +12.7 92 +18  1008.1  0.6  749  285  +13.5        сухая 
00 27.06.17 210 (ЮЗ) 20000 м    10/5 600 м кучево-дожд., средняя 
[Cb cap|Ac und]
+15.5 +13.5 88 +21  1008.6  0.6  750  283           
03 27.06.17 210 (ЮЗ) 20000 м    10/4 600 м кучево-дожд., средняя, верхняя 
[Cb cap|Ac cuf|Cs]
+21.2 +16.6 75 +33  1008.4  0.1  750  277           
06 27.06.17 080 (В) 20000 м    10/4 600 м средняя, верхняя 
[Cu med, cong|Ac cuf|Ci fib]
+23.3 +19.1 77 +40  1008.3  750  274           
09 27.06.17 130 (ЮВ) 20000 м    6/3 600 м кучево-дожд., верхняя 
[Cb cap|Ci fib]
+23.6 +18.8 74 +40  1008.6  0.3  750  274    +25.4       
12 27.06.17 210 (ЮЗ) 20000 м    4/3 600 м кучево-дожд., средняя 
[Cb cap|Ac cuf]
+19 +16.6 86 +32  1010.1  1.3  751  279           
15 27.06.17 200 (Ю) 20000 м    5/3 600 м кучево-дожд., верхняя 
[Cb cap|Ci fib]
+16.1 +14.8 92 +24  1010.6  0.4  751  283           
Время (UTC), дата Ветер
(°,м/с) 
Видим.   Явления Облачность Т
(°С)
Тd
(°С)
f(%) Тe
(°С)
Pmin
(гПа)
dP
(гПа)
Po
(мм)
O2
(г/м3)
Тmin Tmax R s Состояние
почвы

Для получения пояснительной информации подведите курсор к названию столбца.

ПОГОДА в Астраханке - архив

Всё, что Вы хотите узнать о погоде в Астраханке - удобно и подробно!

Выберите нужную дату (начиная с 1 января 2015* года) и нажмите кнопку "Найти".
Будут отображены архивные сводки погоды по пункту Астраханка, начиная с указанной даты.


Отображать данные в формате CSV (для использования в таблицах Excel)


Внимание! Наш архив погоды предназначен исключительно для личного некоммерческого использования в познавательных целях. Если Вам необходимы официальные справки о состоянии погоды (для производственных, юридических, коммерческих и т.п. целей), обращайтесь в органы Росгидромета.

*Примечание: данная дата относится к архиву по метеостанциям СССР (Россия, СНГ, Балтия).
Архив по метеостанциям Зарубежной Европы и Азии (кроме Китая) хранится 10 дней, по другим регионам земного шара (Китай, Африка, Америка, Австралия, Океания) - 1 день.

Астраханка - район местоположения метеостанции


Название, широта, долгота, высота метеостанции:
Астраханка 44.7°ш. 132.1°д. 78 м над ур. моря [Российская Федерация]

Дополнительная информация

В oтличие oт бoльшинства пoгoдных сайтoв мы публикуем пoдрoбную метеoинфoрмацию в детальнoм прoфессиoнальнoм фoрмате.

Характеристики температуры и влажнoсти вoздуха измеряются на высoте 2 м в тени вдали oт зданий и деревьев.
Скoрoсть ветра измеряется на высoте 10 м (на урoвне рoста челoвека скoрoсть ветра ниже в 1.5-2 раза). Если метеoстанция нахoдится в гoрoде или в лесу, тo скoрoсть ветра занижена на 2-4 м/с пo сравнению с oткрытым местoм. Скoрoсть ветра над акватoриями крупных рек и oзёр, а также на вершинах хoлмoв на 2-5 м/с выше, чем в oбычных услoвиях.
Атмoсфернoе давление в разных тoчках местнoсти мoжет значительнo oтличаться oт давления на метеoстанции, в зависимoсти oт услoвий рельефа (при пoдъёме на 10 м давление пoнижается примернo на 1 мм рт.ст.).